User: anonymous   Login
Location: Bangkok
(13.7500°N, 100.5170°E)
Time: 07:14:16
(UTC+07:00)
Language:

Cosmos 1898 Rocket - Orbit

View from above orbital plane
View from above orbital plane
View from above satellite
View from above satellite

Ground track
Ground track

The orbit data is extracted from the following two-line orbital elements,

1 18586U 87098B   16337.41075551  .00000001  00000-0  91729-5 0  9992
2 18586  74.0068 297.6679 0020108  37.8356  90.5099 14.36749987519100
Epoch (UTC): 02 December 2016 09:51:29
Eccentricity: 0.0020108
inclination: 74.0068°
perigee height: 755 km
apogee height: 783 km
right ascension of ascending node: 297.6679°
argument of perigee: 37.8356°
revolutions per day: 14.36749987
mean anomaly at epoch: 90.5099°
orbit number at epoch: 51910

The dashed part of the orbit path shows where the satellite is in the earth's shadow,  

DLR